Year,Month,Day,Hour,Minute,Value (Times are PST for temperature in C)
2017,10,25,00,00,6.90
2017,10,25,00,01,6.90
2017,10,25,00,02,6.90
2017,10,25,00,03,6.90
2017,10,25,00,04,6.90
2017,10,25,00,05,6.90
2017,10,25,00,06,6.90
2017,10,25,00,07,6.90
2017,10,25,00,08,6.90
2017,10,25,00,09,6.90
2017,10,25,00,10,6.90
2017,10,25,00,11,6.90
2017,10,25,00,12,6.90
2017,10,25,00,13,6.90
2017,10,25,00,14,7.00
2017,10,25,00,15,7.00
2017,10,25,00,16,7.00
2017,10,25,00,17,7.00
2017,10,25,00,18,7.00
2017,10,25,00,19,7.00
2017,10,25,00,20,7.00
2017,10,25,00,21,7.00
2017,10,25,00,22,7.00
2017,10,25,00,23,7.10
2017,10,25,00,24,7.10
2017,10,25,00,25,7.10
2017,10,25,00,26,7.10
2017,10,25,00,27,7.00
2017,10,25,00,28,7.00
2017,10,25,00,29,7.00
2017,10,25,00,30,7.00
2017,10,25,00,31,6.90
2017,10,25,00,32,6.90
2017,10,25,00,33,6.90
2017,10,25,00,34,6.90
2017,10,25,00,35,7.00
2017,10,25,00,36,7.00
2017,10,25,00,37,7.10
2017,10,25,00,38,7.10
2017,10,25,00,39,7.10
2017,10,25,00,40,7.10
2017,10,25,00,41,7.10
2017,10,25,00,42,7.10
2017,10,25,00,43,7.10
2017,10,25,00,44,7.10
2017,10,25,00,45,7.10
2017,10,25,00,46,7.00
2017,10,25,00,47,7.00
2017,10,25,00,48,7.00
2017,10,25,00,49,7.00
2017,10,25,00,50,6.90
2017,10,25,00,51,6.90
2017,10,25,00,52,6.90
2017,10,25,00,53,6.90
2017,10,25,00,54,6.90
2017,10,25,00,55,6.90
2017,10,25,00,56,6.90
2017,10,25,00,57,6.90
2017,10,25,00,58,6.90
2017,10,25,00,59,7.00
2017,10,25,01,00,7.00
2017,10,25,01,01,7.00
2017,10,25,01,02,7.00
2017,10,25,01,03,7.10
2017,10,25,01,04,7.10
2017,10,25,01,05,7.20
2017,10,25,01,06,7.30
2017,10,25,01,07,7.40
2017,10,25,01,08,7.50
2017,10,25,01,09,7.60
2017,10,25,01,10,7.60
2017,10,25,01,11,7.60
2017,10,25,01,12,7.50
2017,10,25,01,13,7.50
2017,10,25,01,14,7.40
2017,10,25,01,15,7.40
2017,10,25,01,16,7.50
2017,10,25,01,17,7.50
2017,10,25,01,18,7.50
2017,10,25,01,19,7.40
2017,10,25,01,20,7.40
2017,10,25,01,21,7.40
2017,10,25,01,22,7.30
2017,10,25,01,23,7.30
2017,10,25,01,24,7.30
2017,10,25,01,25,7.30
2017,10,25,01,26,7.30
2017,10,25,01,27,7.30
2017,10,25,01,28,7.30
2017,10,25,01,29,7.40
2017,10,25,01,30,7.40
2017,10,25,01,31,7.50
2017,10,25,01,32,7.50
2017,10,25,01,33,7.60
2017,10,25,01,34,7.60
2017,10,25,01,35,7.60
2017,10,25,01,36,7.60
2017,10,25,01,37,7.60
2017,10,25,01,38,7.60
2017,10,25,01,39,7.80
2017,10,25,01,40,7.80
2017,10,25,01,41,7.90
2017,10,25,01,42,8.00
2017,10,25,01,43,8.10
2017,10,25,01,44,8.20
2017,10,25,01,45,8.20
2017,10,25,01,46,8.20
2017,10,25,01,47,8.20
2017,10,25,01,48,8.20
2017,10,25,01,49,8.20
2017,10,25,01,50,8.20
2017,10,25,01,51,8.20
2017,10,25,01,52,8.20
2017,10,25,01,53,8.20
2017,10,25,01,54,8.30
2017,10,25,01,55,8.40
2017,10,25,01,56,8.50
2017,10,25,01,57,8.50
2017,10,25,01,58,8.60
2017,10,25,01,59,8.60
2017,10,25,02,00,8.70
2017,10,25,02,01,8.80
2017,10,25,02,02,8.90
2017,10,25,02,03,8.90
2017,10,25,02,04,9.00
2017,10,25,02,05,9.10
2017,10,25,02,06,9.10
2017,10,25,02,07,9.20
2017,10,25,02,08,9.20
2017,10,25,02,09,9.20
2017,10,25,02,10,9.20
2017,10,25,02,11,9.20
2017,10,25,02,12,9.20
2017,10,25,02,13,9.20
2017,10,25,02,14,9.20
2017,10,25,02,15,9.20
2017,10,25,02,16,9.20
2017,10,25,02,17,9.20
2017,10,25,02,18,9.20
2017,10,25,02,19,9.20
2017,10,25,02,20,9.20
2017,10,25,02,21,9.20
2017,10,25,02,22,9.20
2017,10,25,02,23,9.20
2017,10,25,02,24,9.20
2017,10,25,02,25,9.20
2017,10,25,02,26,9.20
2017,10,25,02,27,9.20
2017,10,25,02,28,9.30
2017,10,25,02,29,9.30
2017,10,25,02,30,9.30
2017,10,25,02,31,9.40
2017,10,25,02,32,9.40
2017,10,25,02,33,9.50
2017,10,25,02,34,9.50
2017,10,25,02,35,9.50
2017,10,25,02,36,9.60
2017,10,25,02,37,9.60
2017,10,25,02,38,9.60
2017,10,25,02,39,9.70
2017,10,25,02,40,9.70
2017,10,25,02,41,9.70
2017,10,25,02,42,9.70
2017,10,25,02,43,9.70
2017,10,25,02,44,9.70
2017,10,25,02,45,9.70
2017,10,25,02,46,9.80
2017,10,25,02,47,9.80
2017,10,25,02,48,9.90
2017,10,25,02,49,9.90
2017,10,25,02,50,9.90
2017,10,25,02,51,9.90
2017,10,25,02,52,9.90
2017,10,25,02,53,9.90
2017,10,25,02,54,9.90
2017,10,25,02,55,9.90
2017,10,25,02,56,10.00
2017,10,25,02,57,10.00
2017,10,25,02,58,9.90
2017,10,25,02,59,9.90
2017,10,25,03,00,9.90
2017,10,25,03,01,9.90
2017,10,25,03,02,9.90
2017,10,25,03,03,10.00
2017,10,25,03,04,10.10
2017,10,25,03,05,10.10
2017,10,25,03,06,10.00
2017,10,25,03,07,9.90
2017,10,25,03,08,9.90
2017,10,25,03,09,9.90
2017,10,25,03,10,9.90
2017,10,25,03,11,9.90
2017,10,25,03,12,9.80
2017,10,25,03,13,9.80
2017,10,25,03,14,9.80
2017,10,25,03,15,9.70
2017,10,25,03,16,9.70
2017,10,25,03,17,9.70
2017,10,25,03,18,9.70
2017,10,25,03,19,9.70
2017,10,25,03,20,9.70
2017,10,25,03,21,9.70
2017,10,25,03,22,9.70
2017,10,25,03,23,9.60
2017,10,25,03,24,9.60
2017,10,25,03,25,9.50
2017,10,25,03,26,9.50
2017,10,25,03,27,9.40
2017,10,25,03,28,9.40
2017,10,25,03,29,9.30
2017,10,25,03,30,9.30
2017,10,25,03,31,9.20
2017,10,25,03,32,9.20
2017,10,25,03,33,9.20
2017,10,25,03,34,9.10
2017,10,25,03,35,9.10
2017,10,25,03,36,9.10
2017,10,25,03,37,9.00
2017,10,25,03,38,9.00
2017,10,25,03,39,9.00
2017,10,25,03,40,8.90
2017,10,25,03,41,8.90
2017,10,25,03,42,8.90
2017,10,25,03,43,8.90
2017,10,25,03,44,8.90
2017,10,25,03,45,8.90
2017,10,25,03,46,8.90
2017,10,25,03,47,8.90
2017,10,25,03,48,8.90
2017,10,25,03,49,8.90
2017,10,25,03,50,9.00
2017,10,25,03,51,9.00
2017,10,25,03,52,9.00
2017,10,25,03,53,9.00
2017,10,25,03,54,9.00
2017,10,25,03,55,9.00
2017,10,25,03,56,9.00
2017,10,25,03,57,9.10
2017,10,25,03,58,9.10
2017,10,25,03,59,9.20
2017,10,25,04,00,9.20
2017,10,25,04,01,9.20
2017,10,25,04,02,9.20
2017,10,25,04,03,9.20
2017,10,25,04,04,9.20
2017,10,25,04,05,9.20
2017,10,25,04,06,9.20
2017,10,25,04,07,9.20
2017,10,25,04,08,9.20
2017,10,25,04,09,9.20
2017,10,25,04,10,9.10
2017,10,25,04,11,9.10
2017,10,25,04,12,9.10
2017,10,25,04,13,9.00
2017,10,25,04,14,9.00
2017,10,25,04,15,8.90
2017,10,25,04,16,8.90
2017,10,25,04,17,9.00
2017,10,25,04,18,9.10
2017,10,25,04,19,9.20
2017,10,25,04,20,9.30
2017,10,25,04,21,9.30
2017,10,25,04,22,9.30
2017,10,25,04,23,9.30
2017,10,25,04,24,9.40
2017,10,25,04,25,9.40
2017,10,25,04,26,9.40
2017,10,25,04,27,9.40
2017,10,25,04,28,9.40
2017,10,25,04,29,9.40
2017,10,25,04,30,9.40
2017,10,25,04,31,9.40
2017,10,25,04,32,9.40
2017,10,25,04,33,9.40
2017,10,25,04,34,9.40
2017,10,25,04,35,9.40
2017,10,25,04,36,9.40
2017,10,25,04,37,9.40
2017,10,25,04,38,9.40
2017,10,25,04,39,9.40
2017,10,25,04,40,9.40
2017,10,25,04,41,9.40
2017,10,25,04,42,9.40
2017,10,25,04,43,9.40
2017,10,25,04,44,9.50
2017,10,25,04,45,9.50
2017,10,25,04,46,9.60
2017,10,25,04,47,9.60
2017,10,25,04,48,9.60
2017,10,25,04,49,9.70
2017,10,25,04,50,9.70
2017,10,25,04,51,9.90
2017,10,25,04,52,9.90
2017,10,25,04,53,10.00
2017,10,25,04,54,10.10
2017,10,25,04,55,10.10
2017,10,25,04,56,10.20
2017,10,25,04,57,10.20
2017,10,25,04,58,10.20
2017,10,25,04,59,10.20
2017,10,25,05,00,10.20
2017,10,25,05,01,10.20
2017,10,25,05,02,10.20
2017,10,25,05,03,10.20
2017,10,25,05,04,10.20
2017,10,25,05,05,10.10
2017,10,25,05,06,10.20
2017,10,25,05,07,10.20
2017,10,25,05,08,10.20
2017,10,25,05,09,10.20
2017,10,25,05,10,10.20
2017,10,25,05,11,10.30
2017,10,25,05,12,10.30
2017,10,25,05,13,10.30
2017,10,25,05,14,10.30
2017,10,25,05,15,10.40
2017,10,25,05,16,10.40
2017,10,25,05,17,10.60
2017,10,25,05,18,10.70
2017,10,25,05,19,10.70
2017,10,25,05,20,10.80
2017,10,25,05,21,10.90
2017,10,25,05,22,10.90
2017,10,25,05,23,11.10
2017,10,25,05,24,11.10
2017,10,25,05,25,11.10
2017,10,25,05,26,11.20
2017,10,25,05,27,11.20
2017,10,25,05,28,11.30
2017,10,25,05,29,11.40
2017,10,25,05,30,11.40
2017,10,25,05,31,11.40
2017,10,25,05,32,11.50
2017,10,25,05,33,11.60
2017,10,25,05,34,11.60
2017,10,25,05,35,11.60
2017,10,25,05,36,11.60
2017,10,25,05,37,11.60
2017,10,25,05,38,11.60
2017,10,25,05,39,11.60
2017,10,25,05,40,11.60
2017,10,25,05,41,11.60
2017,10,25,05,42,11.60
2017,10,25,05,43,11.60
2017,10,25,05,44,11.60
2017,10,25,05,45,11.60
2017,10,25,05,46,11.60
2017,10,25,05,47,11.50
2017,10,25,05,48,11.40
2017,10,25,05,49,11.40
2017,10,25,05,50,11.40
2017,10,25,05,51,11.40
2017,10,25,05,52,11.40
2017,10,25,05,53,11.40
2017,10,25,05,54,11.40
2017,10,25,05,55,11.40
2017,10,25,05,56,11.40
2017,10,25,05,57,11.40
2017,10,25,05,58,11.50
2017,10,25,05,59,11.60
2017,10,25,06,00,11.60
2017,10,25,06,01,11.60
2017,10,25,06,02,11.60
2017,10,25,06,03,11.60
2017,10,25,06,04,11.60
2017,10,25,06,05,11.60
2017,10,25,06,06,11.60
2017,10,25,06,07,11.60
2017,10,25,06,08,11.60
2017,10,25,06,09,11.70
2017,10,25,06,10,11.80
2017,10,25,06,11,11.80
2017,10,25,06,12,11.90
2017,10,25,06,13,12.00
2017,10,25,06,14,12.10
2017,10,25,06,15,12.10
2017,10,25,06,16,12.20
2017,10,25,06,17,12.30
2017,10,25,06,18,12.40
2017,10,25,06,19,12.50
2017,10,25,06,20,12.60
2017,10,25,06,21,12.80
2017,10,25,06,22,12.90
2017,10,25,06,23,13.00
2017,10,25,06,24,13.20
2017,10,25,06,25,13.30
2017,10,25,06,26,13.40
2017,10,25,06,27,13.50
2017,10,25,06,28,13.60
2017,10,25,06,29,13.70
2017,10,25,06,30,13.70
2017,10,25,06,31,13.70
2017,10,25,06,32,13.80
2017,10,25,06,33,13.80
2017,10,25,06,34,13.90
2017,10,25,06,35,13.90
2017,10,25,06,36,13.90
2017,10,25,06,37,14.00
2017,10,25,06,38,14.00
2017,10,25,06,39,14.10
2017,10,25,06,40,14.10
2017,10,25,06,41,14.20
2017,10,25,06,42,14.20
2017,10,25,06,43,14.20
2017,10,25,06,44,14.20
2017,10,25,06,45,14.20
2017,10,25,06,46,14.20
2017,10,25,06,47,14.30
2017,10,25,06,48,14.30
2017,10,25,06,49,14.30
2017,10,25,06,50,14.30
2017,10,25,06,51,14.40
2017,10,25,06,52,14.40
2017,10,25,06,53,14.40
2017,10,25,06,54,14.50
2017,10,25,06,55,14.50
2017,10,25,06,56,14.50
2017,10,25,06,57,14.50
2017,10,25,06,58,14.60
2017,10,25,06,59,14.60
2017,10,25,07,00,14.60
2017,10,25,07,01,14.60
2017,10,25,07,02,14.60
2017,10,25,07,03,14.70
2017,10,25,07,04,14.70
2017,10,25,07,05,14.70
2017,10,25,07,06,14.70
2017,10,25,07,07,14.80
2017,10,25,07,08,14.80
2017,10,25,07,09,14.80
2017,10,25,07,10,14.80
2017,10,25,07,11,14.80
2017,10,25,07,12,14.80
2017,10,25,07,13,14.80
2017,10,25,07,14,14.90
2017,10,25,07,15,14.90
2017,10,25,07,16,14.90
2017,10,25,07,17,14.90
2017,10,25,07,18,14.90
2017,10,25,07,19,15.00
2017,10,25,07,20,15.00
2017,10,25,07,21,15.00
2017,10,25,07,22,15.00
2017,10,25,07,23,15.00
2017,10,25,07,24,15.00
2017,10,25,07,25,15.10
2017,10,25,07,26,15.10
2017,10,25,07,27,15.10
2017,10,25,07,28,15.10
2017,10,25,07,29,15.10
2017,10,25,07,30,15.10
2017,10,25,07,31,15.20
2017,10,25,07,32,15.20
2017,10,25,07,33,15.20
2017,10,25,07,34,15.20
2017,10,25,07,35,15.20
2017,10,25,07,36,15.20
2017,10,25,07,37,15.20
2017,10,25,07,38,15.20
2017,10,25,07,39,15.20
2017,10,25,07,40,15.20
2017,10,25,07,41,15.20
2017,10,25,07,42,15.30
2017,10,25,07,43,15.30
2017,10,25,07,44,15.30
2017,10,25,07,45,15.30
2017,10,25,07,46,15.30
2017,10,25,07,47,15.30
2017,10,25,07,48,15.30
2017,10,25,07,49,15.30
2017,10,25,07,50,15.30
2017,10,25,07,51,15.30
2017,10,25,07,52,15.30
2017,10,25,07,53,15.30
2017,10,25,07,54,15.30
2017,10,25,07,55,15.20
2017,10,25,07,56,15.20
2017,10,25,07,57,15.20
2017,10,25,07,58,15.20
2017,10,25,07,59,15.20
2017,10,25,08,00,15.20
2017,10,25,08,01,15.20
2017,10,25,08,02,15.20
2017,10,25,08,03,15.20
2017,10,25,08,04,15.20
2017,10,25,08,05,15.20
2017,10,25,08,06,15.20
2017,10,25,08,07,15.20
2017,10,25,08,08,15.20
2017,10,25,08,09,15.20
2017,10,25,08,10,15.10
2017,10,25,08,11,15.10
2017,10,25,08,12,15.10
2017,10,25,08,13,15.10
2017,10,25,08,14,15.10
2017,10,25,08,15,15.00
2017,10,25,08,16,15.00
2017,10,25,08,17,15.00
2017,10,25,08,18,14.90
2017,10,25,08,19,14.90
2017,10,25,08,20,14.90
2017,10,25,08,21,14.80
2017,10,25,08,22,14.80
2017,10,25,08,23,14.80
2017,10,25,08,24,14.80
2017,10,25,08,25,14.80
2017,10,25,08,26,14.70
2017,10,25,08,27,14.70
2017,10,25,08,28,14.70
2017,10,25,08,29,14.70
2017,10,25,08,30,14.60
2017,10,25,08,31,14.60
2017,10,25,08,32,14.60
2017,10,25,08,33,14.60
2017,10,25,08,34,14.60
2017,10,25,08,35,14.50
2017,10,25,08,36,14.50
2017,10,25,08,37,14.50
2017,10,25,08,38,14.50
2017,10,25,08,39,14.50
2017,10,25,08,40,14.50
2017,10,25,08,41,14.50
2017,10,25,08,42,14.50
2017,10,25,08,43,14.50
2017,10,25,08,44,14.40
2017,10,25,08,45,14.40
2017,10,25,08,46,14.40
2017,10,25,08,47,14.40
2017,10,25,08,48,14.40
2017,10,25,08,49,14.40
2017,10,25,08,50,14.40
2017,10,25,08,51,14.40
2017,10,25,08,52,14.40
2017,10,25,08,53,14.30
2017,10,25,08,54,14.30
2017,10,25,08,55,14.30
2017,10,25,08,56,14.30
2017,10,25,08,57,14.30
2017,10,25,08,58,14.30
2017,10,25,08,59,14.30
2017,10,25,09,00,14.30
2017,10,25,09,01,14.30
2017,10,25,09,02,14.30
2017,10,25,09,03,14.30
2017,10,25,09,04,14.30
2017,10,25,09,05,14.30
2017,10,25,09,06,14.30
2017,10,25,09,07,14.30
2017,10,25,09,08,14.20
2017,10,25,09,09,14.20
2017,10,25,09,10,14.20
2017,10,25,09,11,14.20
2017,10,25,09,12,14.20
2017,10,25,09,13,14.20
2017,10,25,09,14,14.20
2017,10,25,09,15,14.20
2017,10,25,09,16,14.20
2017,10,25,09,17,14.20
2017,10,25,09,18,14.20
2017,10,25,09,19,14.20
2017,10,25,09,20,14.20
2017,10,25,09,21,14.20
2017,10,25,09,22,14.20
2017,10,25,09,23,14.20
2017,10,25,09,24,14.20
2017,10,25,09,25,14.20
2017,10,25,09,26,14.20
2017,10,25,09,27,14.20
2017,10,25,09,28,14.20
2017,10,25,09,29,14.20
2017,10,25,09,30,14.20
2017,10,25,09,31,14.20
2017,10,25,09,32,14.20
2017,10,25,09,33,14.20
2017,10,25,09,34,14.30
2017,10,25,09,35,14.30
2017,10,25,09,36,14.30
2017,10,25,09,37,14.30
2017,10,25,09,38,14.30
2017,10,25,09,39,14.30
2017,10,25,09,40,14.20
2017,10,25,09,41,14.20
2017,10,25,09,42,14.20
2017,10,25,09,43,14.20
2017,10,25,09,44,14.20
2017,10,25,09,45,14.20
2017,10,25,09,46,14.20
2017,10,25,09,47,14.20
2017,10,25,09,48,14.20
2017,10,25,09,49,14.20
2017,10,25,09,50,14.20
2017,10,25,09,51,14.20
2017,10,25,09,52,14.20
2017,10,25,09,53,14.20
2017,10,25,09,54,14.20
2017,10,25,09,55,14.20
2017,10,25,09,56,14.30
2017,10,25,09,57,14.30
2017,10,25,09,58,14.30
2017,10,25,09,59,14.30
2017,10,25,10,00,14.30
2017,10,25,10,01,14.30
2017,10,25,10,02,14.30
2017,10,25,10,03,14.30
2017,10,25,10,04,14.30
2017,10,25,10,05,14.30
2017,10,25,10,06,14.30
2017,10,25,10,07,14.40
2017,10,25,10,08,14.40
2017,10,25,10,09,14.40
2017,10,25,10,10,14.40
2017,10,25,10,11,14.30
2017,10,25,10,12,14.30
2017,10,25,10,13,14.30
2017,10,25,10,14,14.30
2017,10,25,10,15,14.30
2017,10,25,10,16,14.30
2017,10,25,10,17,14.30
2017,10,25,10,18,14.30
2017,10,25,10,19,14.30
2017,10,25,10,20,14.30
2017,10,25,10,21,14.30
2017,10,25,10,22,14.30
2017,10,25,10,23,14.30
2017,10,25,10,24,14.30
2017,10,25,10,25,14.30
2017,10,25,10,26,14.30
2017,10,25,10,27,14.30
2017,10,25,10,28,14.30
2017,10,25,10,29,14.30
2017,10,25,10,30,14.30
2017,10,25,10,31,14.40
2017,10,25,10,32,14.40
2017,10,25,10,33,14.40
2017,10,25,10,34,14.40
2017,10,25,10,35,14.40
2017,10,25,10,36,14.40
2017,10,25,10,37,14.40
2017,10,25,10,38,14.40
2017,10,25,10,39,14.40
2017,10,25,10,40,14.40
2017,10,25,10,41,14.40
2017,10,25,10,42,14.40
2017,10,25,10,43,14.40
2017,10,25,10,44,14.40
2017,10,25,10,45,14.40
2017,10,25,10,46,14.40
2017,10,25,10,47,14.40
2017,10,25,10,48,14.40
2017,10,25,10,49,14.40
2017,10,25,10,50,14.40
2017,10,25,10,51,14.40
2017,10,25,10,52,14.40
2017,10,25,10,53,14.40
2017,10,25,10,54,14.40
2017,10,25,10,55,14.50
2017,10,25,10,56,14.50
2017,10,25,10,57,14.50
2017,10,25,10,58,14.50
2017,10,25,10,59,14.50
2017,10,25,11,00,14.50
2017,10,25,11,01,14.50
2017,10,25,11,02,14.50
2017,10,25,11,03,14.50
2017,10,25,11,04,14.60
2017,10,25,11,05,14.60
2017,10,25,11,06,14.60
2017,10,25,11,07,14.60
2017,10,25,11,08,14.60
2017,10,25,11,09,14.60
2017,10,25,11,10,14.50
2017,10,25,11,11,14.50
2017,10,25,11,12,14.50
2017,10,25,11,13,14.50
2017,10,25,11,14,14.50
2017,10,25,11,15,14.50
2017,10,25,11,16,14.60
2017,10,25,11,17,14.60
2017,10,25,11,18,14.60
2017,10,25,11,19,14.70
2017,10,25,11,20,14.80
2017,10,25,11,21,14.90
2017,10,25,11,22,15.00
2017,10,25,11,23,15.10
2017,10,25,11,24,15.10
2017,10,25,11,25,15.20
2017,10,25,11,26,15.20
2017,10,25,11,27,15.20
2017,10,25,11,28,15.20
2017,10,25,11,29,15.30
2017,10,25,11,30,15.30
2017,10,25,11,31,15.30
2017,10,25,11,32,15.30
2017,10,25,11,33,15.20
2017,10,25,11,34,15.30
2017,10,25,11,35,15.30
2017,10,25,11,36,15.30
2017,10,25,11,37,15.30
2017,10,25,11,38,15.30
2017,10,25,11,39,15.30
2017,10,25,11,40,15.40
2017,10,25,11,41,15.40
2017,10,25,11,42,15.50
2017,10,25,11,43,15.50
2017,10,25,11,44,15.60
2017,10,25,11,45,15.60
2017,10,25,11,46,15.70
2017,10,25,11,47,15.70
2017,10,25,11,48,15.80
2017,10,25,11,49,15.80
2017,10,25,11,50,15.80
2017,10,25,11,51,15.80
2017,10,25,11,52,15.90
2017,10,25,11,53,16.10
2017,10,25,11,54,16.10
2017,10,25,11,55,16.10
2017,10,25,11,56,16.10
2017,10,25,11,57,16.10
2017,10,25,11,58,16.10
2017,10,25,11,59,16.10
2017,10,25,12,00,16.10
2017,10,25,12,01,16.10
2017,10,25,12,02,16.20
2017,10,25,12,03,16.20
2017,10,25,12,04,16.20
2017,10,25,12,05,16.20
2017,10,25,12,06,16.10
2017,10,25,12,07,16.10
2017,10,25,12,08,16.20
2017,10,25,12,09,16.20
2017,10,25,12,10,16.20
2017,10,25,12,11,16.20
2017,10,25,12,12,16.30
2017,10,25,12,13,16.30
2017,10,25,12,14,16.20
2017,10,25,12,15,16.20
2017,10,25,12,16,16.20
2017,10,25,12,17,16.20
2017,10,25,12,18,16.20
2017,10,25,12,19,16.20
2017,10,25,12,20,16.20
2017,10,25,12,21,16.30
2017,10,25,12,22,16.30
2017,10,25,12,23,16.30
2017,10,25,12,24,16.20
2017,10,25,12,25,16.20
2017,10,25,12,26,16.20
2017,10,25,12,27,16.20
2017,10,25,12,28,16.20
2017,10,25,12,29,16.20
2017,10,25,12,30,16.10
2017,10,25,12,31,16.10
2017,10,25,12,32,16.10
2017,10,25,12,33,16.10
2017,10,25,12,34,16.10
2017,10,25,12,35,16.00
2017,10,25,12,36,15.90
2017,10,25,12,37,15.90
2017,10,25,12,38,15.80
2017,10,25,12,39,15.80
2017,10,25,12,40,15.80
2017,10,25,12,41,15.80
2017,10,25,12,42,15.80
2017,10,25,12,43,15.80
2017,10,25,12,44,15.80
2017,10,25,12,45,15.80
2017,10,25,12,46,15.80
2017,10,25,12,47,15.80
2017,10,25,12,48,15.80
2017,10,25,12,49,15.80
2017,10,25,12,50,15.80
2017,10,25,12,51,15.80
2017,10,25,12,52,15.80
2017,10,25,12,53,15.80
2017,10,25,12,54,15.90
2017,10,25,12,55,15.90
2017,10,25,12,56,15.90
2017,10,25,12,57,15.90
2017,10,25,12,58,15.90
2017,10,25,12,59,15.80
2017,10,25,13,00,15.80
2017,10,25,13,01,15.60
2017,10,25,13,02,15.50
2017,10,25,13,03,15.40
2017,10,25,13,04,15.30
2017,10,25,13,05,15.10
2017,10,25,13,06,14.90
2017,10,25,13,07,14.70
2017,10,25,13,08,14.50
2017,10,25,13,09,14.30
2017,10,25,13,10,14.10
2017,10,25,13,11,13.90
2017,10,25,13,12,13.70
2017,10,25,13,13,13.60
2017,10,25,13,14,13.40
2017,10,25,13,15,13.30
2017,10,25,13,16,13.10
2017,10,25,13,17,13.00
2017,10,25,13,18,12.90
2017,10,25,13,19,12.80
2017,10,25,13,20,12.80
2017,10,25,13,21,12.70
2017,10,25,13,22,12.70
2017,10,25,13,23,12.60
2017,10,25,13,24,12.50
2017,10,25,13,25,12.40
2017,10,25,13,26,12.30
2017,10,25,13,27,12.20
2017,10,25,13,28,12.10
2017,10,25,13,29,12.00
2017,10,25,13,30,12.00
2017,10,25,13,31,11.90
2017,10,25,13,32,11.90
2017,10,25,13,33,11.80
2017,10,25,13,34,11.80
2017,10,25,13,35,11.70
2017,10,25,13,36,11.70
2017,10,25,13,37,11.70
2017,10,25,13,38,11.70
2017,10,25,13,39,11.60
2017,10,25,13,40,11.60
2017,10,25,13,41,11.60
2017,10,25,13,42,11.60
2017,10,25,13,43,11.60
2017,10,25,13,44,11.50
2017,10,25,13,45,11.40
2017,10,25,13,46,11.40
2017,10,25,13,47,11.40
2017,10,25,13,48,11.40
2017,10,25,13,49,11.40
2017,10,25,13,50,11.40
2017,10,25,13,51,11.30
2017,10,25,13,52,11.30
2017,10,25,13,53,11.30
2017,10,25,13,54,11.40
2017,10,25,13,55,11.40
2017,10,25,13,56,11.40
2017,10,25,13,57,11.40
2017,10,25,13,58,11.40
2017,10,25,13,59,11.40
2017,10,25,14,00,11.40
2017,10,25,14,01,11.40
2017,10,25,14,02,11.50
2017,10,25,14,03,11.60
2017,10,25,14,04,11.60
2017,10,25,14,05,11.60
2017,10,25,14,06,11.60
2017,10,25,14,07,11.70
2017,10,25,14,08,11.70
2017,10,25,14,09,11.70
2017,10,25,14,10,11.80
2017,10,25,14,11,11.80
2017,10,25,14,12,11.80
2017,10,25,14,13,11.80
2017,10,25,14,14,11.80
2017,10,25,14,15,11.80
2017,10,25,14,16,11.80
2017,10,25,14,17,11.80
2017,10,25,14,18,11.80
2017,10,25,14,19,11.80
2017,10,25,14,20,11.80
2017,10,25,14,21,11.80
2017,10,25,14,22,11.80
2017,10,25,14,23,11.90
2017,10,25,14,24,11.90
2017,10,25,14,25,11.90
2017,10,25,14,26,11.90
2017,10,25,14,27,11.90
2017,10,25,14,28,11.90
2017,10,25,14,29,12.00
2017,10,25,14,30,12.00
2017,10,25,14,31,12.00
2017,10,25,14,32,12.00
2017,10,25,14,33,12.10
2017,10,25,14,34,12.10
2017,10,25,14,35,12.10
2017,10,25,14,36,12.10
2017,10,25,14,37,12.10
2017,10,25,14,38,12.10
2017,10,25,14,39,12.20
2017,10,25,14,40,12.20
2017,10,25,14,41,12.30
2017,10,25,14,42,12.30
2017,10,25,14,43,12.30
2017,10,25,14,44,12.30
2017,10,25,14,45,12.30
2017,10,25,14,46,12.30
2017,10,25,14,47,12.40
2017,10,25,14,48,12.40
2017,10,25,14,49,12.40
2017,10,25,14,50,12.40
2017,10,25,14,51,12.30
2017,10,25,14,52,12.40
2017,10,25,14,53,12.40
2017,10,25,14,54,12.40
2017,10,25,14,55,12.40
2017,10,25,14,56,12.30
2017,10,25,14,57,12.30
2017,10,25,14,58,12.20
2017,10,25,14,59,12.20
2017,10,25,15,00,12.20
2017,10,25,15,01,12.20
2017,10,25,15,02,12.10
2017,10,25,15,03,12.20
2017,10,25,15,04,12.20
2017,10,25,15,05,12.20
2017,10,25,15,06,12.20
2017,10,25,15,07,12.20
2017,10,25,15,08,12.20
2017,10,25,15,09,12.30
2017,10,25,15,10,12.30
2017,10,25,15,11,12.30
2017,10,25,15,12,12.40
2017,10,25,15,13,12.50
2017,10,25,15,14,12.50
2017,10,25,15,15,12.50
2017,10,25,15,16,12.50
2017,10,25,15,17,12.50
2017,10,25,15,18,12.50
2017,10,25,15,19,12.60
2017,10,25,15,20,12.60
2017,10,25,15,21,12.60
2017,10,25,15,22,12.60
2017,10,25,15,23,12.60
2017,10,25,15,24,12.60
2017,10,25,15,25,12.60
2017,10,25,15,26,12.60
2017,10,25,15,27,12.50
2017,10,25,15,28,12.50
2017,10,25,15,29,12.50
2017,10,25,15,30,12.50
2017,10,25,15,31,12.60
2017,10,25,15,32,12.60
2017,10,25,15,33,12.60
2017,10,25,15,34,12.60
2017,10,25,15,35,12.50
2017,10,25,15,36,12.40
2017,10,25,15,37,12.30
2017,10,25,15,38,12.30
2017,10,25,15,39,12.40
2017,10,25,15,40,12.40
2017,10,25,15,41,12.40
2017,10,25,15,42,12.40
2017,10,25,15,43,12.40
2017,10,25,15,44,12.40
2017,10,25,15,45,12.40
2017,10,25,15,46,12.40
2017,10,25,15,47,12.40
2017,10,25,15,48,12.30
2017,10,25,15,49,12.30
2017,10,25,15,50,12.30
2017,10,25,15,51,12.20
2017,10,25,15,52,12.20
2017,10,25,15,53,12.20
2017,10,25,15,54,12.20
2017,10,25,15,55,12.20
2017,10,25,15,56,12.20
2017,10,25,15,57,12.20
2017,10,25,15,58,12.20
2017,10,25,15,59,12.20
2017,10,25,16,00,12.10
2017,10,25,16,01,12.10
2017,10,25,16,02,12.10
2017,10,25,16,03,12.10
2017,10,25,16,04,12.10
2017,10,25,16,05,12.20
2017,10,25,16,06,12.20
2017,10,25,16,07,12.20
2017,10,25,16,08,12.20
2017,10,25,16,09,12.10
2017,10,25,16,10,12.10
2017,10,25,16,11,12.10
2017,10,25,16,12,12.00
2017,10,25,16,13,12.00
2017,10,25,16,14,11.90
2017,10,25,16,15,11.80
2017,10,25,16,16,11.80
2017,10,25,16,17,11.70
2017,10,25,16,18,11.70
2017,10,25,16,19,11.70
2017,10,25,16,20,11.70
2017,10,25,16,21,11.70
2017,10,25,16,22,11.70
2017,10,25,16,23,11.70
2017,10,25,16,24,11.70
2017,10,25,16,25,11.70
2017,10,25,16,26,11.70
2017,10,25,16,27,11.70
2017,10,25,16,28,11.80
2017,10,25,16,29,11.80
2017,10,25,16,30,11.80
2017,10,25,16,31,11.80
2017,10,25,16,32,11.80
2017,10,25,16,33,11.80
2017,10,25,16,34,11.80
2017,10,25,16,35,11.80
2017,10,25,16,36,11.80
2017,10,25,16,37,11.80
2017,10,25,16,38,11.80
2017,10,25,16,39,11.80
2017,10,25,16,40,11.80
2017,10,25,16,41,11.80
2017,10,25,16,42,11.80
2017,10,25,16,43,11.80
2017,10,25,16,44,11.80
2017,10,25,16,45,11.80
2017,10,25,16,46,11.80
2017,10,25,16,47,11.80
2017,10,25,16,48,11.80
2017,10,25,16,49,11.80
2017,10,25,16,50,11.80
2017,10,25,16,51,11.80
2017,10,25,16,52,11.80
2017,10,25,16,53,11.80
2017,10,25,16,54,11.80
2017,10,25,16,55,11.80
2017,10,25,16,56,11.80
2017,10,25,16,57,11.80
2017,10,25,16,58,11.80
2017,10,25,16,59,11.80
2017,10,25,17,00,11.80
2017,10,25,17,01,11.80
2017,10,25,17,02,11.80
2017,10,25,17,03,11.80
2017,10,25,17,04,11.80
2017,10,25,17,05,11.70
2017,10,25,17,06,11.70
2017,10,25,17,07,11.60
2017,10,25,17,08,11.60
2017,10,25,17,09,11.60
2017,10,25,17,10,11.50
2017,10,25,17,11,11.40
2017,10,25,17,12,11.40
2017,10,25,17,13,11.40
2017,10,25,17,14,11.40
2017,10,25,17,15,11.40
2017,10,25,17,16,11.30
2017,10,25,17,17,11.30
2017,10,25,17,18,11.30
2017,10,25,17,19,11.30
2017,10,25,17,20,11.30
2017,10,25,17,21,11.30
2017,10,25,17,22,11.30
2017,10,25,17,23,11.30
2017,10,25,17,24,11.30
2017,10,25,17,25,11.20
2017,10,25,17,26,11.20
2017,10,25,17,27,11.20
2017,10,25,17,28,11.20
2017,10,25,17,29,11.20
2017,10,25,17,30,11.20
2017,10,25,17,31,11.10